Location: Columbia
(38.9520°N, 92.3340°W)
Time: 03:01:34
(UTC-05:00)

FENGYUN 3A - Visible Passes

Search period start: 01 April 2015 00:00
Search period end: 11 April 2015 00:00
Orbit: 819 x 834 km, 98.5° (Epoch: 31 March)

Date Brightness Start Highest point End Pass type
(mag) Time Alt. Az. Time Alt. Az. Time Alt. Az.
01 Apr 4.9 20:31:45 16° E 20:34:08 22° ENE 20:38:13 10° NNE visible
01 Apr 4.4 22:13:15 43° SW 22:14:07 47° W 22:19:16 10° NNW visible
02 Apr 5.3 20:12:43 10° E 20:15:33 15° ENE 20:18:37 10° NNE visible
02 Apr 3.8 21:54:08 54° SSW 21:55:16 71° WSW 22:00:39 10° NNW visible
03 Apr 3.5 21:35:01 49° SSE 21:36:29 79° ENE 21:41:53 10° N visible
03 Apr 6.2 23:16:30 11° W 23:17:28 12° W 23:19:09 10° WNW visible
04 Apr 3.8 21:15:54 36° SE 21:17:45 53° ENE 21:22:59 10° N visible
04 Apr 5.8 22:57:24 18° WSW 22:58:24 18° W 23:01:55 10° NW visible
05 Apr 4.3 20:56:47 25° ESE 20:59:04 36° ENE 21:03:57 10° N visible
05 Apr 5.2 22:38:17 25° WSW 22:39:24 27° W 22:43:52 10° NW visible
06 Apr 4.8 20:37:40 16° ESE 20:40:24 25° ENE 20:44:45 10° NNE visible
06 Apr 4.7 22:19:10 35° SW 22:20:28 40° W 22:25:29 10° NNW visible
07 Apr 5.2 20:18:34 10° ESE 20:21:47 17° ENE 20:25:17 10° NNE visible
07 Apr 4.0 22:00:03 43° SSW 22:01:36 61° W 22:06:55 10° NNW visible
08 Apr 3.5 21:40:56 43° SSE 21:42:48 90° SW 21:48:12 10° NNW visible
09 Apr 3.7 21:21:49 34° SE 21:24:03 61° ENE 21:29:21 10° N visible
09 Apr 5.9 23:03:20 14° WSW 23:04:49 16° W 23:07:49 10° NW visible
10 Apr 4.1 21:02:43 24° ESE 21:05:20 41° ENE 21:10:22 10° N visible
10 Apr 5.5 22:44:13 21° WSW 22:45:47 23° W 22:49:57 10° NW visible
